Location: Biharia
(46.4333°N, 22.8000°E)
Time: 19:35:22
(UTC+00:00)

Cosmos 494 Rocket - Visible Passes

Search period start: 25 May 2022 00:00
Search period end: 04 June 2022 00:00
Orbit: 742 x 770 km, 74.1° (Epoch: 25 May)

Date Brightness Start Highest point End Pass type
(mag) Time Alt. Az. Time Alt. Az. Time Alt. Az.
25 May 5.1 00:12:33 10° NW 00:16:37 24° W 00:17:14 24° WSW visible
25 May 5.5 21:49:51 10° N 21:54:16 28° ENE 21:57:02 18° ESE visible
25 May 4.4 23:31:24 10° NW 23:36:13 43° WSW 23:37:01 40° SW visible
26 May 6.1 21:09:48 10° N 21:13:16 18° NE 21:16:42 10° E visible
26 May 3.8 22:50:34 10° NNW 22:55:42 77° WSW 22:56:50 54° S visible
27 May 6.5 20:30:32 10° NNE 20:32:06 11° NE 20:33:39 10° ENE visible
27 May 4.2 22:09:57 10° NNW 22:15:02 61° ENE 22:16:41 40° SE visible
27 May 5.5 23:52:51 10° NW 23:56:19 19° W 23:56:41 19° WSW visible
28 May 5.1 21:29:32 10° N 21:34:15 35° ENE 21:36:34 24° ESE visible
28 May 4.8 23:11:27 10° NW 23:15:59 33° WSW 23:16:34 32° WSW visible
29 May 5.8 20:49:20 10° N 20:53:18 22° NE 20:56:29 13° E visible
29 May 4.1 22:30:29 10° NNW 22:35:31 59° WSW 22:36:29 50° SSW visible
30 May 6.2 20:09:34 10° NNE 20:12:13 14° NE 20:14:52 10° ENE visible
30 May 3.9 21:49:46 10° NNW 21:54:55 79° ENE 21:56:25 47° SE visible
30 May 5.9 23:33:23 10° WNW 23:36:00 14° W 23:36:25 14° W visible
31 May 4.6 21:09:16 10° N 21:14:11 45° ENE 21:16:23 29° ESE visible
31 May 5.2 22:51:34 10° NW 22:55:43 25° W 22:56:23 25° WSW visible
01 Jun 5.4 20:28:56 10° N 20:33:19 27° NE 20:36:22 16° ESE visible
01 Jun 4.5 22:10:26 10° NNW 22:15:18 45° WSW 22:16:22 39° SW visible
02 Jun 6.0 19:48:55 10° N 19:52:17 17° NE 19:55:38 10° E visible
02 Jun 3.9 21:29:37 10° NNW 21:34:46 81° WSW 21:36:23 44° S visible
02 Jun 6.2 23:14:51 10° W 23:15:38 10° W 23:16:23 10° W visible
03 Jun 6.3 19:09:50 10° NNE 19:11:07 11° NE 19:12:23 10° ENE visible
03 Jun 4.2 20:49:01 10° NNW 20:54:05 58° ENE 20:56:25 31° SE visible
03 Jun 5.6 22:31:49 10° NW 22:35:25 20° W 22:36:26 18° WSW visible
